GW2041 Weather Reports


Display with metric or nautical units.
time (UTC)temp
F
wind
direction
speed
MPH
gust
MPH
rain 1hr
in
rain 24hr
in
rain mn
in
humidity
%
barometer
mb
20260506181113 50 23 0.0 3.0 0.00 0.00 0.24 83 1007.9
20260506180109 51 45 0.0 2.0 0.00 0.00 0.24 82 1007.9
20260506175058 51 158 1.0 3.0 0.00 0.00 0.24 82 1008.0
20260506174057 52 68 1.0 5.0 0.00 0.00 0.24 81 1008.0
20260506173052 52 68 0.0 2.0 0.00 0.00 0.24 82 1007.8
20260506172052 53 45 0.0 3.0 0.00 0.00 0.24 83 1007.8
20260506171056 52 23 2.0 0.0 0.00 0.00 0.24 83 1007.5
20260506170236 51 68 2.0 0.0 0.00 0.00 0.24 85 1007.5
20260506165336 52 45 3.0 4.0 0.00 0.00 0.24 84 1007.5
20260506164336 51 23 3.0 6.0 0.00 0.00 0.24 84 1007.5
20260506163337 51 68 2.0 5.0 0.00 0.00 0.24 85 1007.4
20260506162336 51 45 2.0 6.0 0.00 0.00 0.24 85 1007.4
20260506161337 51 45 3.0 8.0 0.00 0.00 0.24 86 1007.5
20260506160340 51 338 3.0 7.0 0.00 0.00 0.24 87 1007.5
20260506155341 50 23 2.0 5.0 0.00 0.00 0.24 88 1007.3
20260506154325 50 203 2.0 8.0 0.00 0.00 0.24 89 1007.3
20260506153322 50 45 1.0 3.0 0.00 0.00 0.24 89 1007.2
20260506152315 50 315 2.0 6.0 0.00 0.00 0.24 90 1007.2
20260506151308 50 23 3.0 8.0 0.00 0.00 0.24 90 1007.0
20260506150309 50 23 2.0 8.0 0.00 0.00 0.24 91 1007.0
20260506144303 50 23 1.0 4.0 0.00 0.00 0.24 91 1007.1
20260506143306 50 68 2.0 5.0 0.00 0.00 0.24 91 1007.0
20260506142301 50 23 2.0 4.0 0.00 0.00 0.24 91 1007.0
20260506141303 50 23 2.0 4.0 0.00 0.00 0.24 92 1006.9
20260506140304 50 45 1.0 3.0 0.00 0.00 0.24 92 1006.9
20260506135301 49 315 2.0 7.0 0.00 0.00 0.24 92 1007.3
20260506134257 50 23 2.0 7.0 0.00 0.00 0.24 92 1007.3
20260506133256 49 0 1.0 4.0 0.00 0.00 0.24 92 1007.0
20260506132259 49 23 1.0 5.0 0.00 0.00 0.24 93 1007.0
20260506131256 49 45 1.0 4.0 0.00 0.00 0.24 93 1007.0
20260506130301 49 23 3.0 9.0 0.00 0.00 0.24 92 1007.0
20260506125240 49 68 2.0 4.0 0.00 0.00 0.24 93 1007.0
20260506124242 49 68 3.0 7.0 0.00 0.00 0.24 93 1007.0
20260506123242 49 0 2.0 3.0 0.00 0.00 0.24 93 1006.6
20260506122240 49 293 2.0 7.0 0.00 0.00 0.24 93 1006.6
20260506121240 48 338 2.0 9.0 0.00 0.00 0.24 93 1006.8
20260506120246 48 45 1.0 9.0 0.00 0.00 0.24 93 1006.8
20260506115717 49 23 2.0 4.0 0.00 0.00 0.24 94 1006.7
20260506114240 49 23 1.0 3.0 0.00 0.00 0.24 94 1006.7
20260506113232 49 45 2.0 3.0 0.00 0.00 0.24 95 1006.5
20260506112703 49 23 1.0 3.0 0.00 0.00 0.24 95 1006.5
20260506111226 49 180 1.0 2.0 0.00 0.00 0.24 95 1006.6
20260506110233 49 68 2.0 6.0 0.00 0.00 0.24 95 1006.6
20260506105227 48 90 2.0 5.0 0.00 0.00 0.24 96 1006.5
20260506104225 49 270 1.0 5.0 0.00 0.00 0.24 96 1006.5
20260506103223 48 0 1.0 0.0 0.00 0.00 0.22 96 1006.1
20260506101325 48 0 1.0 2.0 0.00 0.08 0.22 96 1006.1
20260506100326 48 270 1.0 3.0 0.00 0.08 0.22 96 1006.1
20260506095323 48 23 1.0 3.0 0.00 0.08 0.22 96 1006.1
20260506094312 48 315 2.0 4.0 0.00 0.08 0.22 96 1006.1
20260506093749 48 23 2.0 4.0 0.00 0.08 0.22 96 1006.0
20260506092310 48 45 1.0 5.0 0.00 0.08 0.22 96 1006.0
20260506091311 48 0 0.0 4.0 0.00 0.08 0.22 97 1005.8
20260506090313 47 68 1.0 4.0 0.03 0.08 0.22 97 1005.8
20260506085314 47 45 1.0 4.0 0.03 0.08 0.22 96 1005.6
20260506084312 48 68 0.0 4.0 0.03 0.08 0.22 97 1005.6
20260506083258 47 23 1.0 5.0 0.03 0.08 0.22 97 1005.7
20260506082257 47 0 0.0 4.0 0.03 0.08 0.22 97 1005.7
20260506081258 47 23 1.0 4.0 0.03 0.08 0.22 97 1005.3
20260506080256 47 23 0.0 2.0 0.00 0.06 0.19 97 1005.3
20260506073258 46 315 0.0 0.0 0.03 0.06 0.19 97 1005.1
20260506072253 46 68 1.0 4.0 0.03 0.06 0.19 97 1005.1
20260506071249 46 315 1.0 4.0 0.03 0.06 0.19 97 1004.9
20260506070736 46 45 2.0 7.0 0.06 0.06 0.19 97 1004.9
20260506062246 46 45 1.0 3.0 0.03 0.03 0.16 97 1004.8
20260506061246 46 23 1.0 5.0 0.03 0.03 0.16 97 1004.6
20260506060243 46 315 1.0 4.0 0.00 0.00 0.16 97 1004.6
20260506051235 47 23 0.0 3.0 0.00 0.00 0.13 96 1004.4
20260506050714 47 90 0.0 0.0 0.00 0.00 0.13 97 1004.4
20260506044226 47 0 0.0 0.0 0.00 0.00 0.13 96 1004.3
20260506043334 47 0 0.0 1.0 0.03 0.13 0.13 96 1004.6
20260506042330 47 45 0.0 0.0 0.03 0.13 0.13 96 1004.6
20260506041802 47 23 0.0 2.0 0.03 0.13 0.13 96 1004.6
20260506040321 47 23 0.0 2.0 0.00 0.11 0.11 96 1004.6
20260506035315 47 23 0.0 0.0 0.03 0.11 0.11 96 1004.8
20260506034315 47 0 0.0 2.0 0.03 0.11 0.11 96 1004.8
20260506033319 47 315 0.0 2.0 0.03 0.11 0.11 96 1004.9
20260506032750 47 0 0.0 0.0 0.03 0.11 0.11 96 1004.9
20260506031304 47 23 0.0 1.0 0.06 0.11 0.11 96 1005.0
20260506030305 47 45 0.0 0.0 0.06 0.11 0.11 96 1005.0
20260506025305 47 23 0.0 2.0 0.03 0.08 0.08 96 1005.1
20260506024301 47 45 0.0 3.0 0.03 0.08 0.08 96 1005.1
20260506023302 47 338 0.0 3.0 0.03 0.08 0.08 96 1005.4
20260506022305 47 0 0.0 1.0 0.03 0.08 0.08 96 1005.4
20260506020737 48 68 0.0 2.0 0.02 0.05 0.05 95 1005.5
20260506015250 48 338 0.0 2.0 0.05 0.05 0.05 95 1005.7
20260506014721 48 45 0.0 3.0 0.05 0.05 0.05 95 1005.7
20260506013247 48 315 0.0 2.0 0.05 0.05 0.05 95 1005.8
20260506012731 48 68 0.0 4.0 0.05 0.05 0.05 95 1005.8
20260506011247 48 45 0.0 3.0 0.03 0.03 0.03 95 1005.8
20260506010249 48 45 0.0 3.0 0.03 0.03 0.03 94 1005.8
20260506005726 48 23 0.0 2.0 0.00 0.00 0.00 94 1006.2
20260506004248 48 23 0.0 0.0 0.00 0.00 0.00 94 1006.2
20260506003249 48 23 0.0 1.0 0.00 0.00 0.00 94 1006.4
20260506002247 48 23 0.0 1.0 0.00 0.00 0.00 94 1006.4
20260506001247 48 23 0.0 3.0 0.00 0.00 0.00 93 1006.6
20260506000717 48 45 0.0 3.0 0.00 0.00 0.00 93 1006.6
20260505235234 48 113 0.0 2.0 0.00 0.00 0.00 93 1006.9
20260505234234 48 113 1.0 3.0 0.00 0.00 0.00 93 1006.9
20260505233235 48 180 0.0 2.0 0.00 0.00 0.00 93 1007.0
20260505232222 48 135 0.0 2.0 0.00 0.00 0.00 92 1007.0
20260505231707 48 180 0.0 2.0 0.00 0.00 0.00 92 1007.5
20260505230222 48 315 0.0 0.0 0.00 0.00 0.00 92 1007.5
20260505225221 48 315 1.0 2.0 0.00 0.00 0.00 92 1007.8
20260505224709 48 23 1.0 2.0 0.00 0.00 0.00 91 1007.8
20260505223216 48 135 0.0 2.0 0.00 0.00 0.00 91 1007.8
20260505222212 48 90 1.0 5.0 0.00 0.00 0.00 91 1007.8
20260505221208 49 0 1.0 2.0 0.00 0.00 0.00 90 1007.9
20260505220207 49 293 1.0 0.0 0.00 0.00 0.00 89 1007.9
20260505215322 49 23 2.0 7.0 0.00 0.00 0.35 90 1008.1
20260505214320 49 158 1.0 3.0 0.00 0.00 0.35 90 1008.1
20260505213320 49 293 1.0 3.0 0.00 0.00 0.35 89 1008.2
20260505212312 49 68 1.0 3.0 0.00 0.00 0.35 89 1008.2
20260505211308 50 338 1.0 4.0 0.00 0.00 0.35 88 1008.3
20260505210308 50 23 1.0 4.0 0.00 0.00 0.35 88 1008.3
20260505205308 50 23 1.0 2.0 0.00 0.00 0.35 88 1008.3
20260505204309 51 315 1.0 4.0 0.00 0.00 0.35 88 1008.3
20260505202307 51 158 0.0 2.0 0.00 0.00 0.35 88 1008.3
20260505200307 51 225 0.0 3.0 0.00 0.00 0.35 87 1008.2
20260505195306 51 248 0.0 3.0 0.00 0.00 0.35 87 1008.2
20260505193306 51 23 0.0 4.0 0.00 0.00 0.35 87 1008.0
20260505192307 51 293 0.0 0.0 0.00 0.00 0.35 87 1008.0
20260505191745 52 45 0.0 3.0 0.00 0.00 0.35 87 1007.9
20260505190737 51 23 0.0 2.0 0.00 0.00 0.35 87 1007.9
20260505185254 52 23 0.0 2.0 0.00 0.00 0.35 87 1008.0
20260505184735 52 23 0.0 2.0 0.00 0.00 0.35 87 1008.0
20260505183253 52 23 0.0 2.0 0.00 0.00 0.35 88 1008.1
20260505182255 52 23 0.0 2.0 0.00 0.00 0.35 88 1008.1